Showing default

HULIANWANG DIGUI-155, 68129

Orbit data source: Space-Track

HULIANWANG DIGUI-155, 68129 is a payload satellite owned by Zhongguo Xingwang (CN) in LEO that was launched on Thu, 12 Mar 2026 UTC via a CHANG ZHENG 8A launch vehicle from the Wenchang Satellite Launch Center (WSC). Payload-class satellites include a variety of spacecraft equipped with specific instruments for various scientific and technological missions. These include communications satellites like Starlink; space stations such as the ISS; scientific satellites like the Hubble; Earth observation satellites from companies like Planet Labs, Umbra, and HawkEye 360; GPS; miniature CubeSats for education and research; and military/defense satellites.

Loading next visibility...
Identifier
68129, 2026-047A
Orbit
LEO
Country
Flag of CNCN / PRC
Related business
Manufacturer
CAST?
Mission
Operational spacecraft
Bus & Motor
XINGWANG C, Unknown motor
Mass
~700 kg wet, ~700 kg dry
Launch date (UTC)
2026-03-12 (3 months ago)
Launch vehicle
CHANG ZHENG 8A
Launch site
Wenchang Satellite Launch Center (WSC)
Object type
Payload
Rocket body
Debris
Shape & HBR
Unknown shape, 2.3 m
Radar Cross Section
Large (>1 m²)

Expand to show TLE details & history
Last TLE update: 11 hours ago

TLE from 11 hours ago
0 HULIANWANG DIGUI-155
1 68129U 26047A   26171.38676000 -.00000083  00000-0  88902-4 0  9995
2 68129  50.0043  44.9098 0000604 107.3932 252.7006 13.29332485 13498
Epoch: 2026-06-20T09:16Z
TLE epoch observation values (Epoch: 2026-06-20T09:16:56.064Z)
Latitude
-0.00001°
Longitude
-2.92593°
Altitude
1,149.924 km
Speed
7.279 km/s
True Right ascension
02h 59m 38s
True Declination
0° 00' 00"
Sunlit
Object was in daylight at epoch
Visualization orbit readout
Latitude
Unknown
Longitude
Unknown
Altitude
Unknown
Speed
Unknown
Apparent Right ascension
Unknown
Apparent Declination
Unknown
Sunlit
N/A
Visualization observer readout
Local Sidereal Time
07:18:40
Azimuth
Unknown
Elevation
Unknown
Doppler factor
Unknown
Orbital elements
Apogee altitude
1,150.442 km
Perigee altitude
1,149.532 km
Semi-major axis
7,528.124 km
Eccentricity
0.00006
Inclination
50.0043°
RAAN
44.9098°
Arg. of periapsis
107.3932°
True anomaly
252.69399°
Mean anomaly
252.7006°
Eccentric anomaly
252.6973°
Mean motion
3.32287 °/min
Orbital period
108.34 mins
BSTAR
0.000088902
Loading maneuver chart data...
Computing Atmospheric mass density...
Loading historical data...
Loading historical data...
Loading historical data...
Loading historical data...
Loading historical data...
Loading historical data...
Loading historical data...

Documentation

Showing up to 5 results
|